Temperature
31 32 32 33 33 33 33 32 32 32 31 31 31 31 30 29 28 28 27 26 25 24 24 23 22 21 20 20 20 20 20 20 19 19 19 19 19 18 18 18 18 18 18 18
31 32 32 32 32 32 32 32 32 31 31 31 31 31 31 29 29 28 27 27 26 25 24 23 22 21 21 21 20 20 20 20 20 19 19 19 19 18 18 18 18 18 18 18
31 32 31 31 31 31 32 32 32 31 31 31 31 31 30 30 28 28 27 27 26 25 24 23 22 22 21 21 21 21 20 20 20 19 19 19 19 19 18 18 18 18 18 18
31 31 30 31 31 32 31 32 32 31 31 31 31 31 31 30 29 29 28 27 27 26 25 24 23 22 22 21 21 21 21 20 20 20 19 19 19 19 19 18 18 18 18 18
30 30 30 31 31 31 31 31 31 31 31 32 31 31 32 31 30 30 29 28 27 26 25 24 23 22 22 22 21 21 21 20 20 20 20 19 19 19 18 18 18 18 18 18
30 30 31 31 31 31 30 31 30 31 32 30 31 31 31 32 31 31 30 28 27 26 25 24 23 22 22 22 21 21 21 21 20 20 20 19 19 19 18 18 18 18 18 18
29 30 30 30 30 30 30 30 30 30 30 30 31 31 31 32 32 31 30 29 27 26 25 24 23 23 22 22 21 21 21 21 20 20 20 20 19 19 18 18 18 18 18 18
29 29 30 30 31 30 30 31 30 30 30 31 30 31 32 32 31 30 29 29 27 27 26 25 24 23 22 22 22 21 21 21 20 20 20 19 19 18 18 18 18 18 18 18
29 29 30 30 30 31 30 31 32 31 31 31 31 31 31 31 31 30 29 28 28 27 26 25 24 23 23 22 22 21 21 21 20 20 20 19 19 19 19 18 18 18 18 17
29 29 29 29 30 30 31 31 31 31 29 30 30 31 31 31 31 31 30 29 28 27 26 25 24 23 23 22 22 21 21 21 21 20 20 19 19 19 19 18 18 18 18 17
29 28 29 29 29 30 29 30 30 31 30 30 30 31 32 32 31 31 30 29 28 27 26 25 24 23 22 22 22 21 21 21 20 20 20 19 19 19 18 18 18 18 18 17
28 29 28 29 29 30 30 30 30 29 29 29 30 31 32 31 31 30 30 28 27 26 26 25 24 23 22 22 22 21 21 21 20 20 20 19 19 19 18 18 18 18 18 17
27 27 27 27 28 28 29 29 30 30 29 30 30 31 31 30 30 29 29 28 26 25 25 24 23 23 22 22 21 21 21 20 20 20 19 19 19 19 18 18 18 18 17 17
26 27 27 28 28 29 28 28 29 29 29 29 30 31 31 30 30 29 28 27 26 25 24 23 23 22 22 21 21 21 20 20 20 19 19 19 19 19 18 18 18 17 17 17
26 26 27 27 28 29 28 28 28 29 29 30 30 30 31 30 29 28 27 26 26 25 24 23 22 22 21 21 21 21 20 20 20 19 19 19 19 18 18 18 17 17 17 17
25 25 26 26 27 27 28 28 28 29 29 29 30 30 31 29 28 27 26 26 25 25 24 23 22 22 21 21 21 20 20 20 19 19 19 19 19 18 18 18 17 17 17 17
25 24 25 26 27 26 26 28 28 29 29 29 29 30 29 29 27 26 25 25 25 24 24 23 22 22 21 21 20 20 20 20 19 19 19 18 18 18 18 17 17 17 16 16
23 23 24 25 25 24 27 29 28 28 29 29 29 29 28 28 27 26 25 24 24 24 23 22 22 21 21 21 20 20 20 19 19 18 18 18 18 18 17 17 17 17 16 16
23 23 24 25 25 25 27 27 27 27 27 28 28 27 27 26 26 26 24 24 23 23 22 22 21 21 21 20 20 20 19 19 19 18 18 18 18 18 17 17 17 17 16 16
21 22 24 24 24 25 26 26 26 26 26 26 26 26 26 25 27 27 24 22 22 22 21 21 21 21 20 20 20 19 19 19 18 18 18 18 18 17 17 17 17 16 16 16
22 22 23 23 24 26 26 25 25 25 25 24 24 24 24 25 25 24 22 21 21 20 21 21 20 20 20 20 19 19 19 18 18 18 18 17 17 17 17 17 16 16 16 15
23 23 22 23 23 24 24 24 25 24 23 22 22 23 22 22 22 21 21 20 20 20 20 20 20 19 19 19 19 18 18 18 18 18 17 17 17 16 16 16 16 15 15 15
23 23 24 23 24 22 22 22 21 21 21 21 21 21 21 21 21 20 20 19 19 19 19 19 19 19 19 19 18 18 18 18 17 17 17 17 16 16 16 16 15 15 15 14
21 20 22 22 22 21 21 20 20 20 20 20 20 20 20 20 20 19 19 19 19 19 19 19 19 18 18 18 18 18 18 18 17 17 17 16 16 16 15 15 15 14 14 14
21 20 21 21 21 21 20 20 19 19 19 19 19 19 19 19 19 18 18 18 18 18 18 18 18 18 18 18 17 17 17 17 17 17 16 16 15 15 15 15 14 14 14 14
20 20 21 21 20 21 20 19 18 18 18 18 18 18 18 18 18 18 18 17 17 17 17 17 17 17 17 17 17 17 17 17 17 16 16 15 15 15 14 14 14 14 14 14
Wind_Speed
7 9 10 9 8 4 5 6 6 5 6 6 5 4 7 11 11 11 10 10 10 9 8 8 7 7 7 6 6 6 5 5 5 4 3 3 2 2 1 1 1 1 1 1
9 11 7 6 7 6 7 8 7 6 5 5 4 5 5 9 11 11 10 10 10 9 9 8 8 8 8 7 7 7 7 6 6 4 3 2 1 2 1 0 0 1 1 2
13 7 7 9 10 9 8 8 7 6 6 6 5 6 7 8 9 10 10 10 10 10 10 9 9 9 9 9 9 7 7 7 6 5 4 3 3 3 2 2 1 1 1 1
9 6 8 11 11 10 8 6 5 6 7 5 6 4 6 8 10 11 11 11 11 10 10 9 9 9 9 9 8 8 7 7 6 6 6 5 4 3 2 2 1 1 1 2
8 9 11 12 10 9 5 5 6 7 7 6 6 7 4 8 8 10 12 12 11 11 10 9 9 9 8 8 8 8 7 7 6 6 6 5 5 3 2 2 1 1 1 2
6 6 7 7 6 7 7 7 6 7 8 9 7 8 5 5 6 7 10 11 11 11 10 9 8 8 7 7 7 7 8 7 7 7 6 6 5 3 3 2 2 2 2 1
9 8 7 7 9 10 11 10 7 8 8 8 6 8 5 2 4 5 7 10 11 11 11 10 9 9 8 8 7 7 8 7 7 7 6 6 6 5 4 3 2 2 2 1
13 12 10 9 10 10 14 14 10 8 8 7 7 7 4 3 3 4 6 8 10 11 10 10 10 9 8 8 8 8 8 7 7 7 6 6 5 5 3 3 2 2 1 1
11 11 9 8 7 9 12 13 11 10 8 8 7 6 5 5 6 6 7 9 10 11 11 10 9 9 8 8 8 8 8 7 7 7 6 5 5 4 3 2 2 2 1 1
7 9 9 8 7 5 9 10 9 10 10 11 9 9 7 8 7 7 7 9 10 10 10 10 9 9 8 8 8 8 7 7 7 7 6 5 5 4 3 3 2 2 1 1
8 9 10 10 10 12 10 11 10 10 10 11 10 7 4 6 7 7 7 8 9 10 11 10 9 9 8 8 8 8 8 7 7 7 6 5 5 5 4 3 3 2 2 2
8 9 10 11 7 5 10 11 13 12 10 10 11 5 4 4 4 5 6 7 8 9 9 10 9 9 9 8 8 8 8 8 7 7 7 6 5 5 4 4 3 3 3 3
6 8 11 11 10 9 10 11 12 12 10 11 13 7 6 4 4 4 5 6 8 8 9 9 9 9 9 9 9 9 8 8 8 8 8 7 6 6 5 4 4 4 4 4
5 9 12 13 10 12 13 13 13 13 13 13 14 11 5 5 5 4 4 6 8 9 9 9 9 9 9 9 9 9 9 9 9 8 8 7 7 6 6 5 5 5 5 4
6 10 11 10 7 9 13 14 15 16 15 14 12 12 9 6 5 4 4 6 8 9 9 10 10 10 10 10 10 10 9 9 9 9 8 8 7 7 6 6 6 6 6 6
5 8 10 11 10 11 13 15 16 17 16 16 14 13 7 4 4 5 6 7 8 9 10 10 11 11 11 11 11 11 10 9 9 9 9 8 8 8 7 7 7 6 6 6
7 7 10 13 11 11 16 16 17 16 16 15 15 11 6 6 6 6 6 7 8 8 9 10 11 11 11 11 11 12 11 10 10 8 9 9 9 9 8 8 7 7 7 6
9 9 8 10 10 15 10 7 11 14 14 13 12 9 8 7 6 6 6 7 7 8 9 9 10 11 11 11 11 11 12 11 11 9 10 10 10 10 9 8 8 7 6 6
9 10 9 11 14 13 8 6 8 11 11 9 9 9 8 6 6 6 5 5 6 7 7 8 10 11 11 12 12 13 13 13 12 11 11 11 11 10 10 9 8 7 7 7
9 10 11 11 14 14 8 5 4 7 11 5 5 6 6 5 8 6 3 3 3 4 6 8 9 10 11 12 13 14 14 13 13 11 11 11 10 10 10 9 9 8 7 7
13 11 14 14 13 10 3 4 6 10 4 0 4 5 5 6 6 3 2 2 3 4 6 8 9 10 11 12 13 13 13 12 12 11 11 11 10 10 10 9 8 8 7 7
12 12 13 12 13 9 3 4 6 2 3 2 3 4 5 5 4 2 2 2 3 4 6 8 9 10 10 12 12 12 12 11 11 12 12 11 11 10 9 9 8 8 8 8
10 7 7 8 6 1 2 2 2 3 4 4 4 5 5 5 4 2 2 2 3 4 6 7 9 10 10 11 11 11 11 11 12 13 12 11 11 9 9 9 9 8 7 6
7 4 6 6 6 4 4 3 4 4 5 5 5 5 4 4 3 2 2 2 2 3 5 7 9 10 10 10 10 10 11 12 12 12 12 11 11 10 9 7 7 6 6 6
6 6 8 9 6 5 6 4 4 5 5 4 4 4 4 3 3 3 3 3 3 3 4 6 7 8 9 9 9 10 12 13 12 12 12 11 11 10 9 7 5 5 4 3
8 8 9 7 4 5 5 4 5 5 5 4 4 4 4 4 4 3 3 2 3 3 4 5 7 8 8 9 9 9 11 12 13 11 11 9 9 9 9 9 7 10 7 9
Wind_Direction
190 202 198 193 208 217 190 192 176 159 159 198 209 203 176 180 192 194 193 192 195 197 191 190 193 197 196 194 194 197 200 187 190 192 201 199 192 201 204 193 144 236 260 260
194 208 199 187 191 200 193 192 179 157 169 211 219 222 190 189 201 202 200 200 200 196 192 191 195 197 199 199 199 200 201 199 198 192 198 211 222 227 212 251 81 280 276 277
209 182 175 187 188 195 202 207 195 176 173 205 231 212 189 189 201 203 205 204 202 198 196 193 194 198 200 200 200 200 199 196 200 195 196 193 192 219 206 206 204 263 281 291
207 177 185 195 198 208 205 208 206 196 206 204 227 230 172 183 193 201 203 202 200 195 193 191 190 195 199 200 196 194 192 194 193 193 202 206 216 226 226 227 202 241 271 283
188 188 195 204 204 214 204 175 200 212 225 234 212 251 178 172 197 200 200 200 197 192 189 187 188 188 192 193 192 189 186 189 192 198 199 210 223 228 224 213 185 246 253 274
179 184 208 209 194 193 157 161 179 217 233 234 229 244 227 184 207 201 192 193 190 185 182 181 181 178 181 181 184 184 179 185 188 195 201 209 214 219 227 233 222 223 226 240
185 185 183 184 176 179 194 199 205 213 220 230 211 237 241 182 191 202 190 184 184 182 180 179 178 176 177 178 179 181 182 186 188 192 199 203 208 211 214 228 220 238 243 239
195 192 188 195 205 198 208 219 228 231 228 218 198 231 224 178 177 192 185 179 177 178 179 179 178 177 177 177 178 180 181 186 187 190 195 201 207 215 210 207 232 227 247 250
204 196 175 191 211 216 208 224 241 244 250 247 216 218 215 189 193 187 178 175 177 177 176 178 176 175 174 175 177 180 179 180 184 188 187 190 197 206 197 186 203 215 213 187
214 198 180 182 191 218 234 218 222 233 238 240 230 223 218 198 201 197 190 183 178 175 172 173 172 171 169 170 171 174 174 174 177 180 185 178 178 177 176 184 173 178 179 153
216 209 186 187 205 202 200 211 226 231 243 246 241 230 204 203 203 205 199 187 177 176 173 171 168 166 165 166 166 167 168 167 167 170 170 170 165 161 165 167 167 164 159 153
214 220 207 202 199 242 216 219 217 225 228 243 257 239 133 179 195 200 192 177 172 173 171 169 167 165 164 164 164 163 165 164 162 161 160 160 157 155 157 156 154 152 148 141
195 215 207 201 200 204 216 217 223 231 234 236 242 233 133 161 189 187 182 173 170 171 167 166 167 168 167 165 164 162 163 160 159 157 156 153 152 150 148 144 141 139 137 133
222 220 229 226 215 201 209 214 219 226 231 233 238 246 201 205 213 206 190 183 179 175 172 171 170 171 168 165 163 162 161 158 157 156 155 151 152 147 143 137 135 133 131 128
221 222 228 245 246 227 222 220 219 227 236 242 240 246 246 232 227 223 206 192 187 182 181 178 175 171 169 166 164 163 159 159 158 157 156 153 150 142 136 132 130 128 127 123
222 227 221 228 232 234 235 228 225 229 236 242 248 248 255 245 224 217 214 203 197 189 185 180 177 174 174 172 169 163 159 158 157 161 158 152 148 143 140 134 130 127 126 121
208 219 224 227 220 232 234 228 226 229 232 238 242 247 244 236 229 223 215 210 204 194 186 182 179 178 177 176 170 164 161 161 158 161 161 154 152 147 144 140 135 132 129 124
217 221 226 231 216 230 230 217 228 233 234 238 250 256 250 249 242 234 218 214 211 197 188 185 182 177 176 173 170 165 161 161 162 168 165 159 156 150 147 143 137 134 132 128
214 215 227 228 225 229 216 212 222 229 234 239 247 258 259 258 238 225 214 213 209 202 194 188 184 177 172 172 169 165 166 167 167 169 164 160 157 153 151 148 144 142 140 136
199 215 226 226 232 227 210 183 217 232 230 220 242 251 248 239 242 237 201 216 210 197 192 186 179 171 170 171 169 169 171 171 171 168 164 158 156 155 156 154 151 147 144 140
193 205 221 228 233 232 197 176 195 222 225 273 253 249 244 247 281 308 253 223 204 193 188 180 175 173 171 171 172 174 174 174 168 160 158 159 159 158 156 153 150 148 142 133
206 208 214 223 230 221 130 188 217 278 349 311 289 273 269 278 300 280 231 213 196 187 182 178 174 171 168 171 173 175 175 170 163 158 158 159 161 159 153 149 147 147 143 145
219 225 221 223 230 111 169 226 287 304 295 300 295 293 283 280 285 271 246 222 195 189 181 178 174 169 168 173 177 175 168 163 162 160 159 158 156 152 152 152 151 153 157 160
208 226 231 233 221 215 225 256 288 291 289 293 290 289 280 273 270 255 247 218 190 187 181 177 175 173 170 173 176 170 162 161 161 162 158 156 154 153 150 154 156 161 164 167
221 211 221 231 232 234 233 258 284 299 298 296 296 289 272 269 255 244 227 198 186 185 182 171 172 172 167 167 170 166 162 163 162 162 159 161 161 153 148 146 135 154 141 144
226 230 231 235 229 246 247 275 290 293 293 295 296 289 271 259 247 235 210 184 173 177 175 168 168 168 166 165 164 162 164 164 162 163 164 163 160 156 152 146 125 65 78 78
Height
1501 1498 1498 1496 1495 1495 1498 1502 1506 1508 1509 1512 1513 1514 1516 1523 1526 1529 1532 1535 1538 1541 1544 1546 1547 1548 1549 1549 1550 1551 1552 1553 1553 1554 1554 1555 1556 1556 1556 1556 1555 1555 1555 1555
1500 1498 1495 1496 1499 1499 1501 1505 1507 1509 1510 1512 1512 1513 1513 1519 1523 1526 1529 1532 1535 1538 1541 1544 1545 1546 1547 1548 1549 1550 1551 1552 1553 1553 1554 1554 1555 1556 1556 1555 1555 1555 1554 1554
1495 1495 1497 1500 1502 1503 1502 1504 1506 1510 1512 1510 1512 1514 1514 1516 1521 1524 1527 1530 1532 1535 1538 1541 1542 1544 1545 1546 1547 1549 1549 1550 1551 1552 1553 1554 1554 1554 1555 1555 1555 1554 1554 1554
1494 1497 1500 1500 1501 1501 1506 1501 1504 1508 1512 1511 1513 1518 1511 1511 1516 1520 1523 1526 1529 1532 1535 1538 1540 1541 1543 1544 1545 1546 1547 1549 1550 1551 1552 1553 1554 1554 1554 1554 1555 1554 1553 1553
1497 1498 1499 1501 1499 1500 1501 1503 1505 1507 1509 1510 1511 1515 1508 1508 1512 1513 1517 1521 1525 1529 1532 1535 1537 1539 1540 1542 1543 1544 1545 1547 1548 1549 1550 1551 1552 1553 1554 1553 1553 1553 1553 1553
1495 1498 1497 1497 1499 1501 1504 1506 1508 1507 1506 1520 1512 1515 1512 1502 1506 1507 1512 1517 1521 1525 1529 1532 1535 1537 1538 1540 1541 1543 1543 1545 1546 1547 1549 1549 1551 1551 1552 1552 1552 1552 1552 1552
1500 1498 1498 1499 1501 1504 1504 1509 1519 1523 1522 1519 1507 1513 1507 1497 1500 1504 1508 1513 1518 1522 1526 1529 1532 1534 1536 1537 1539 1541 1542 1543 1544 1546 1547 1548 1549 1550 1550 1551 1551 1551 1551 1551
1501 1503 1497 1497 1497 1500 1500 1501 1515 1526 1522 1512 1511 1512 1500 1497 1502 1505 1508 1511 1515 1519 1523 1526 1529 1532 1534 1535 1537 1539 1540 1541 1543 1544 1545 1546 1547 1549 1549 1549 1549 1549 1550 1550
1493 1497 1494 1496 1495 1495 1500 1498 1493 1503 1508 1512 1506 1504 1498 1498 1500 1503 1506 1510 1513 1517 1520 1524 1527 1530 1532 1533 1535 1537 1538 1539 1541 1542 1544 1544 1545 1547 1548 1548 1547 1548 1548 1548
1487 1497 1494 1496 1497 1498 1493 1493 1499 1505 1520 1522 1511 1506 1501 1499 1499 1500 1503 1507 1511 1514 1518 1521 1524 1527 1529 1531 1533 1535 1536 1538 1539 1541 1542 1543 1544 1545 1545 1546 1546 1546 1546 1546
1488 1495 1497 1496 1498 1496 1499 1499 1498 1499 1503 1513 1516 1505 1486 1491 1494 1497 1500 1504 1508 1512 1515 1519 1522 1524 1527 1529 1531 1533 1535 1536 1537 1539 1540 1541 1542 1543 1544 1544 1544 1544 1545 1545
1490 1490 1495 1495 1492 1492 1492 1494 1497 1507 1510 1506 1505 1500 1485 1489 1493 1496 1499 1503 1507 1511 1514 1517 1520 1522 1525 1527 1529 1531 1533 1534 1536 1537 1538 1540 1541 1542 1542 1542 1543 1543 1544 1544
1492 1494 1503 1503 1501 1497 1494 1493 1493 1495 1500 1504 1507 1499 1487 1491 1493 1496 1499 1503 1506 1510 1512 1515 1518 1520 1522 1525 1527 1529 1531 1533 1534 1536 1537 1538 1539 1540 1541 1541 1542 1542 1543 1543
1494 1492 1495 1497 1490 1489 1495 1495 1494 1496 1500 1501 1499 1492 1488 1490 1492 1495 1499 1502 1505 1508 1510 1513 1515 1518 1520 1522 1525 1527 1529 1531 1533 1534 1536 1537 1538 1539 1540 1541 1541 1542 1542 1543
1492 1493 1491 1488 1484 1485 1489 1491 1492 1494 1491 1495 1492 1489 1485 1487 1492 1495 1498 1500 1503 1506 1508 1510 1513 1515 1518 1520 1522 1525 1527 1530 1532 1533 1535 1536 1537 1538 1539 1540 1540 1541 1542 1543
1493 1493 1492 1493 1488 1488 1489 1487 1488 1489 1488 1488 1488 1488 1484 1488 1492 1495 1497 1498 1501 1503 1505 1508 1510 1513 1515 1517 1520 1522 1525 1527 1529 1532 1534 1535 1536 1537 1538 1539 1540 1541 1542 1542
1491 1495 1496 1493 1489 1491 1493 1484 1484 1485 1483 1485 1488 1485 1485 1488 1491 1493 1495 1496 1498 1500 1503 1505 1507 1509 1512 1514 1517 1519 1522 1525 1527 1530 1532 1534 1535 1536 1537 1539 1540 1541 1541 1542
1494 1495 1493 1490 1494 1504 1482 1475 1478 1480 1480 1481 1482 1483 1485 1488 1490 1492 1493 1495 1496 1498 1500 1503 1505 1506 1509 1512 1514 1517 1520 1522 1524 1527 1529 1531 1533 1535 1536 1538 1539 1540 1541 1542
1493 1494 1492 1490 1493 1488 1480 1478 1479 1482 1482 1481 1483 1484 1486 1487 1488 1489 1491 1493 1494 1496 1498 1500 1502 1504 1506 1508 1511 1513 1517 1519 1521 1524 1526 1529 1531 1533 1535 1536 1538 1539 1541 1541
1492 1492 1491 1490 1493 1492 1478 1476 1480 1482 1484 1482 1484 1485 1486 1486 1484 1483 1488 1490 1492 1494 1495 1497 1499 1501 1503 1505 1508 1510 1513 1516 1518 1521 1524 1527 1529 1531 1533 1535 1536 1538 1540 1541
1488 1491 1489 1488 1488 1477 1474 1477 1480 1487 1482 1482 1483 1484 1485 1485 1485 1486 1486 1488 1489 1490 1492 1494 1496 1498 1500 1502 1505 1508 1510 1513 1515 1519 1522 1525 1527 1529 1531 1533 1535 1537 1538 1540
1480 1481 1486 1485 1487 1481 1477 1477 1479 1481 1482 1483 1483 1484 1485 1485 1485 1485 1485 1486 1486 1487 1489 1491 1493 1495 1497 1499 1502 1505 1508 1511 1514 1517 1520 1523 1525 1528 1530 1532 1534 1536 1537 1539
1475 1475 1473 1477 1478 1478 1478 1480 1482 1482 1483 1483 1483 1483 1483 1483 1483 1483 1484 1484 1484 1485 1486 1489 1491 1492 1494 1497 1500 1503 1506 1509 1511 1514 1517 1520 1523 1526 1528 1530 1532 1534 1536 1539
1475 1479 1476 1477 1475 1478 1479 1480 1481 1481 1481 1481 1481 1481 1481 1481 1481 1481 1481 1482 1482 1483 1484 1486 1489 1490 1492 1494 1498 1500 1503 1506 1509 1512 1515 1518 1520 1523 1526 1528 1531 1533 1535 1538
1474 1476 1475 1475 1476 1477 1478 1479 1480 1480 1479 1479 1479 1479 1479 1479 1479 1479 1479 1480 1480 1481 1483 1483 1486 1488 1490 1493 1495 1498 1500 1503 1506 1509 1511 1515 1518 1520 1523 1526 1529 1531 1534 1536
1474 1474 1473 1471 1475 1475 1476 1478 1478 1478 1477 1477 1477 1477 1477 1477 1477 1477 1477 1477 1478 1479 1480 1481 1483 1485 1487 1490 1492 1495 1498 1500 1503 1506 1509 1513 1515 1518 1521 1524 1527 1529 1531 1533